Weather reports worldwide

Advertisment
S. Maria Di Leuca, Italy (16360): temperature & dewpoint: 19.09.2020 02:00:00 - 25.09.2020 02:00:00 (CEST)S. Maria Di Leuca, Italy (16360): wind speed: 19.09.2020 02:00:00 - 25.09.2020 02:00:00 (CEST)S. Maria Di Leuca, Italy (16360): wind direction: 19.09.2020 02:00:00 - 25.09.2020 02:00:00 (CEST)S. Maria Di Leuca, Italy (16360): reduced air pressure: 19.09.2020 02:00:00 - 25.09.2020 02:00:00 (CEST)S. Maria Di Leuca, Italy (16360): visibility: 19.09.2020 02:00:00 - 25.09.2020 02:00:00 (CEST)S. Maria Di Leuca, Italy (16360): sunshine duration: 19.09.2020 02:00:00 - 25.09.2020 02:00:00 (CEST)
Date & Time tt [°C] td [°C] ff [km/h] ff [kn] dd ppp [hPa] vv [km] sd [min]
25.09.2020 02:00:00 - - - - - - - -
25.09.2020 01:00:00 - - - - - - - -
25.09.2020 00:00:00 - - - - - - - -
24.09.2020 23:00:00 - - - - - - - -
24.09.2020 22:00:00 - - - - - - - -
24.09.2020 21:00:00 - - - - - - - -
24.09.2020 20:00:00 23,6 17,4 8 4 SW 1014,0 20 -
24.09.2020 19:00:00 24,4 18,4 5 3 WSW 1013,7 20 12
24.09.2020 18:00:00 26,0 18,7 11 6 WSW 1013,6 20 60
24.09.2020 17:00:00 26,0 18,4 13 7 W 1013,6 20 60
24.09.2020 16:00:00 25,6 19,7 15 8 WSW 1013,9 20 60
24.09.2020 15:00:00 25,6 19,0 16 9 WSW 1013,9 20 60
24.09.2020 14:00:00 25,8 19,2 15 8 WSW 1013,9 20 60
24.09.2020 13:00:00 25,8 19,4 15 8 WSW 1014,0 20 60
24.09.2020 12:00:00 26,0 20,1 13 7 WSW 1013,8 20 60
24.09.2020 11:00:00 25,6 19,2 11 6 WSW 1013,9 20 60
24.09.2020 10:00:00 24,4 17,9 8 4 WSW 1013,9 20 60
24.09.2020 09:00:00 22,6 19,0 5 3 WSW 1013,8 20 60
24.09.2020 08:00:00 22,0 18,0 0 0 N 1013,8 20 0
24.09.2020 07:00:00 - - - - - - - -
24.09.2020 06:00:00 - - - - - - - -
24.09.2020 05:00:00 - - - - - - - -
24.09.2020 04:00:00 - - - - - - - -
24.09.2020 03:00:00 - - - - - - - -
24.09.2020 02:00:00 - - - - - - - -
24.09.2020 01:00:00 - - - - - - - -
24.09.2020 00:00:00 - - - - - - - -
23.09.2020 23:00:00 - - - - - - - -
23.09.2020 22:00:00 - - - - - - - -
23.09.2020 21:00:00 - - - - - - - -
23.09.2020 20:00:00 - - - - - - - -
23.09.2020 19:00:00 22,0 18,4 18 10 SE 1012,9 10 0
23.09.2020 18:00:00 22,4 19,2 26 14 SE 1013,0 10 0
23.09.2020 17:00:00 21,4 19,2 26 14 ESE 1013,0 10 0
23.09.2020 16:00:00 21,6 19,2 21 11 ESE 1013,1 10 0
23.09.2020 15:00:00 21,8 18,8 24 13 E 1013,6 10 0
23.09.2020 14:00:00 22,6 20,1 16 9 ESE 1014,0 10 0
23.09.2020 13:00:00 22,4 20,3 21 11 ESE 1014,3 10 12
23.09.2020 12:00:00 25,0 21,5 24 13 SE 1014,7 10 0
23.09.2020 11:00:00 25,2 21,5 18 10 SE 1014,4 10 18
23.09.2020 10:00:00 25,2 21,1 11 6 S 1014,2 10 42
23.09.2020 09:00:00 24,6 22,1 11 6 SW 1013,4 10 0
23.09.2020 08:00:00 24,4 22,1 18 10 SW 1013,5 10 -
23.09.2020 07:00:00 - - - - - - - -
23.09.2020 06:00:00 - - - - - - - -
23.09.2020 05:00:00 - - - - - - - -
23.09.2020 04:00:00 - - - - - - - -
23.09.2020 03:00:00 - - - - - - - -
23.09.2020 02:00:00 - - - - - - - -
23.09.2020 01:00:00 - - - - - - - -
23.09.2020 00:00:00 - - - - - - - -
22.09.2020 23:00:00 - - - - - - - -
22.09.2020 22:00:00 - - - - - - - -
22.09.2020 21:00:00 - - - - - - - -
22.09.2020 20:00:00 24,0 21,7 18 10 SSE 1016,0 10 -
22.09.2020 19:00:00 24,2 21,9 18 10 SSE 1016,0 10 0
22.09.2020 18:00:00 24,8 21,7 16 9 S 1016,0 10 36
22.09.2020 17:00:00 25,0 21,3 15 8 SW 1016,1 10 60
22.09.2020 16:00:00 25,2 21,7 18 10 S 1016,2 10 18
22.09.2020 15:00:00 25,4 22,1 18 10 S 1016,2 10 60
22.09.2020 14:00:00 25,4 22,7 15 8 S 1016,8 10 42
22.09.2020 13:00:00 25,4 22,5 16 9 SSE 1016,9 10 60
22.09.2020 12:00:00 25,0 21,5 15 8 SSE 1017,1 10 18
22.09.2020 11:00:00 24,8 21,3 16 9 S 1016,9 10 30
22.09.2020 10:00:00 23,8 21,7 13 7 S 1017,0 10 0
22.09.2020 09:00:00 24,2 21,5 18 10 W 1016,4 10 12
22.09.2020 08:00:00 24,0 21,5 11 6 SSW 1016,3 10 0
22.09.2020 07:00:00 - - - - - - - -
22.09.2020 06:00:00 - - - - - - - -
22.09.2020 05:00:00 - - - - - - - -
22.09.2020 04:00:00 - - - - - - - -
22.09.2020 03:00:00 - - - - - - - -
22.09.2020 02:00:00 - - - - - - - -
22.09.2020 01:00:00 - - - - - - - -
22.09.2020 00:00:00 - - - - - - - -
21.09.2020 23:00:00 - - - - - - - -
21.09.2020 22:00:00 - - - - - - - -
21.09.2020 21:00:00 - - - - - - - -
21.09.2020 20:00:00 24,2 21,7 18 10 S 1015,7 10 -
21.09.2020 19:00:00 24,4 21,7 18 10 S 1015,6 10 0
21.09.2020 18:00:00 25,0 22,7 11 6 S 1016,1 10 12
21.09.2020 17:00:00 25,0 22,7 13 7 SSE 1016,1 10 60
21.09.2020 16:00:00 25,4 22,5 15 8 S 1016,2 10 48
21.09.2020 15:00:00 25,6 22,5 13 7 SSE 1016,7 10 42
21.09.2020 14:00:00 25,6 22,7 15 8 SE 1016,8 10 60
21.09.2020 13:00:00 25,6 22,3 11 6 SSE 1016,8 10 48
21.09.2020 12:00:00 25,4 22,3 11 6 SSE 1016,6 10 60
21.09.2020 11:00:00 25,4 22,1 11 6 ESE 1016,6 10 60
21.09.2020 10:00:00 24,8 21,5 9 5 ESE 1016,1 10 60
21.09.2020 09:00:00 23,4 21,5 8 4 SE 1015,9 10 12
21.09.2020 08:00:00 22,2 20,3 8 4 E 1015,6 10 0
21.09.2020 07:00:00 - - - - - - - -
21.09.2020 06:00:00 - - - - - - - -
21.09.2020 05:00:00 - - - - - - - -
21.09.2020 04:00:00 - - - - - - - -
21.09.2020 03:00:00 - - - - - - - -
21.09.2020 02:00:00 - - - - - - - -
21.09.2020 01:00:00 - - - - - - - -
21.09.2020 00:00:00 - - - - - - - -
20.09.2020 23:00:00 - - - - - - - -
20.09.2020 22:00:00 - - - - - - - -
20.09.2020 21:00:00 - - - - - - - -
20.09.2020 20:00:00 23,4 19,8 4 2 SSE 1014,3 10 0
20.09.2020 19:00:00 24,6 20,1 8 4 ENE 1014,1 10 36
20.09.2020 18:00:00 25,4 20,4 8 4 ENE 1014,1 10 36
20.09.2020 17:00:00 26,4 21,2 11 6 E 1014,7 10 36
20.09.2020 16:00:00 26,4 21,2 13 7 E 1014,7 10 24
20.09.2020 15:00:00 25,4 20,2 9 5 SW 1014,8 10 12
20.09.2020 14:00:00 25,4 20,2 9 5 SSW 1015,1 10 18
20.09.2020 13:00:00 27,0 20,1 4 2 WNW 1015,0 10 36
20.09.2020 12:00:00 27,0 20,1 4 2 WNW 1015,0 10 36
20.09.2020 11:00:00 27,0 18,6 9 5 NNE 1015,1 10 60
20.09.2020 10:00:00 24,0 18,7 11 6 NNE 1014,9 10 60
20.09.2020 09:00:00 23,8 18,5 16 9 NNE 1014,8 10 48
20.09.2020 08:00:00 22,4 19,0 15 8 NNE 1014,4 10 6
20.09.2020 07:00:00 - - - - - - - -
20.09.2020 06:00:00 - - - - - - - -
20.09.2020 05:00:00 - - - - - - - -
20.09.2020 04:00:00 - - - - - - - -
20.09.2020 03:00:00 - - - - - - - -
20.09.2020 02:00:00 - - - - - - - -
20.09.2020 01:00:00 - - - - - - - -
20.09.2020 00:00:00 - - - - - - - -
19.09.2020 23:00:00 - - - - - - - -
19.09.2020 22:00:00 - - - - - - - -
19.09.2020 21:00:00 - - - - - - - -
19.09.2020 20:00:00 25,8 14,6 11 6 NNE 1013,9 10 0
19.09.2020 19:00:00 26,8 13,9 16 9 NNE 1013,8 10 18
19.09.2020 18:00:00 28,4 16,0 15 8 NNE 1013,8 10 18
19.09.2020 17:00:00 28,4 16,0 22 12 NNE 1013,9 10 0
19.09.2020 16:00:00 28,4 16,0 18 10 NNE 1014,0 10 0
19.09.2020 15:00:00 28,6 16,5 16 9 NE 1014,5 10 30
19.09.2020 14:00:00 28,6 16,5 16 9 NNE 1014,6 10 30
19.09.2020 13:00:00 28,6 16,5 21 11 NNE 1014,6 10 30
19.09.2020 12:00:00 27,0 18,6 21 11 NNE 1014,6 10 30
19.09.2020 11:00:00 27,0 18,6 18 10 N 1014,6 10 36
19.09.2020 10:00:00 24,4 19,2 21 11 N 1014,6 10 0
19.09.2020 09:00:00 24,0 18,9 21 11 N 1014,1 10 0
19.09.2020 08:00:00 23,6 18,5 22 12 N 1013,9 10 0
19.09.2020 07:00:00 - - - - - - - -
19.09.2020 06:00:00 - - - - - - - -
19.09.2020 05:00:00 - - - - - - - -
19.09.2020 04:00:00 - - - - - - - -
19.09.2020 03:00:00 - - - - - - - -
19.09.2020 02:00:00 - - - - - - - -

tt = temperature
td = dewpoint
ff = wind speed
dd = wind direction
ppp = reduced air pressure
vv = visibility
sd = sunshine duration

Next stations